STARLINK-32340, 61008

Orbit data source: Space-Track

STARLINK-32340, 61008 is a payload satellite owned by SpaceX/Seattle (US) in LEO that was launched on Thu, 05 Sep 2024 UTC via an FALCON 9 launch vehicle from the Air Force Eastern Test Range (AFETR). Payload-class satellites include a variety of spacecraft equipped with specific instruments for various scientific and technological missions. These include communications satellites like Starlink; space stations such as the ISS; scientific satellites like the Hubble; Earth observation satellites from companies like Planet Labs, Umbra, and HawkEye 360; GPS; miniature CubeSats for education and research; and military/defense satellites.

Loading next visibility...
Identifier
61008, 2024-158U
Orbit
LEO
Country
Flag of USUS
Related business
Manufacturer
SpaceX/Seattle
Mission
Operational Commercial Communications
Bus & Motor
STARLINK V2M, Unknown motor
Mass
730 kg wet, ~700 kg dry
Launch date (UTC)
2024-09-05 (2 years ago)
Launch vehicle
FALCON 9
Launch site
Air Force Eastern Test Range (AFETR)
Object type
Payload
Rocket body
Debris
Shape & HBR
Box + 2 Pan, 17.7 m
Radar Cross Section
33.884 m², Large (>1 m²)

Expand to show TLE details & history
Last TLE update: 9 hours ago

TLE from 9 hours ago
0 STARLINK-32340
1 61008U 24158U   26125.41668060 -.00003377  00000-0 -10193-3 0  9991
2 61008  53.1596 162.1625 0001108  89.5231 270.5896 15.30206783 94260
Epoch: 2026-05-05T10:00Z
TLE epoch observation values (Epoch: 2026-05-05T10:00:01.203Z)
Latitude
-0.0001°
Longitude
148.86558°
Altitude
476.087 km
Speed
7.629 km/s
True Right ascension
10h 48m 38s
True Declination
0° 00' 00"
Sunlit
Object was in full shadow at epoch
Visualization orbit readout
Latitude
Unknown
Longitude
Unknown
Altitude
Unknown
Speed
Unknown
Apparent Right ascension
Unknown
Apparent Declination
Unknown
Sunlit
N/A
Visualization observer readout
Local Sidereal Time
02:37:43
Azimuth
Unknown
Elevation
Unknown
Doppler factor
Unknown
Orbital elements
Apogee altitude
476.211 km
Perigee altitude
474.692 km
Semi-major axis
6,853.588 km
Eccentricity
0.00011
Inclination
53.1596°
RAAN
162.1625°
Arg. of periapsis
89.5231°
True anomaly
270.5769°
Mean anomaly
270.5896°
Eccentric anomaly
270.58325°
Mean motion
3.82531 °/min
Orbital period
94.11 mins
BSTAR
-0.00010193
Loading maneuver chart data...
Computing Atmospheric mass density...
Loading historical data...
Loading historical data...
Loading historical data...
Loading historical data...
Loading historical data...
Loading historical data...
Loading historical data...

Documentation

Showing up to 5 results
|